GW4137 Weather Reports


time (UTC)temp
C
wind
direction
speed
KPH
gust
KPH
rain 1hr
cm
rain 24hr
cm
rain mn
cm
humidity
%
barometer
mb
20260904010055 21 322 8.0 16.1 0.00 0.25 0.10 37 1008.9
20260904004600 21 319 8.0 16.1 0.00 0.30 0.10 37 1008.9
20260904003054 21 311 8.0 19.3 0.00 0.30 0.10 35 1008.7
20260904001558 21 308 11.3 22.5 0.00 0.30 0.10 35 1008.7
20260904000120 22 307 16.1 25.7 0.00 0.30 0.10 34 1008.6
20260903234556 22 296 16.1 33.8 0.00 0.41 0.10 34 1008.2
20260903233056 22 294 16.1 32.2 0.00 0.41 0.10 34 1008.2
20260903231602 22 302 8.0 24.1 0.00 0.41 0.10 34 1008.2
20260903230058 22 263 16.1 25.7 0.00 0.41 0.10 34 1008.2
20260903224610 23 250 11.3 25.7 0.00 0.48 0.10 34 1008.2
20260903223100 23 255 16.1 29.0 0.00 0.48 0.10 33 1007.9
20260903221557 22 261 12.9 25.7 0.00 0.48 0.10 35 1007.6
20260903220053 22 266 16.1 25.7 0.00 0.48 0.10 34 1007.5
20260903214609 23 247 16.1 27.4 0.00 0.48 0.10 31 1007.4
20260903213107 24 281 16.1 32.2 0.00 0.48 0.10 32 1007.2
20260903211603 22 248 8.0 32.2 0.00 0.48 0.10 34 1007.2
20260903210122 23 238 14.5 29.0 0.00 0.48 0.10 30 1007.0
20260903204601 22 232 14.5 24.1 0.00 0.48 0.10 32 1007.2
20260903203109 23 263 11.3 25.7 0.00 0.48 0.10 33 1007.2
20260903201555 22 254 17.7 29.0 0.00 0.48 0.10 33 1007.4
20260903194603 22 215 19.3 27.4 0.00 0.48 0.10 34 1007.4
20260903193101 22 238 12.9 25.7 0.00 0.48 0.10 36 1007.4
20260903191552 22 249 17.7 53.1 0.00 0.48 0.10 35 1007.5
20260903190105 21 252 16.1 25.7 0.00 0.48 0.10 37 1007.5
20260903184559 22 213 19.3 30.6 0.00 0.48 0.10 37 1007.4
20260903183056 21 250 20.9 35.4 0.00 0.48 0.10 38 1007.4
20260903181551 21 260 19.3 32.2 0.00 0.48 0.10 39 1007.4
20260903180105 21 234 20.9 33.8 0.00 0.48 0.10 38 1007.5
20260903174558 21 234 20.9 37.0 0.00 0.48 0.10 40 1007.7
20260903173053 21 237 20.9 29.0 0.00 0.48 0.10 42 1007.5
20260903171612 20 250 11.3 20.9 0.00 0.48 0.10 45 1007.6
20260903170057 19 236 6.4 14.5 0.00 0.48 0.10 47 1007.7
20260903164623 18 238 3.2 14.5 0.00 0.48 0.10 50 1007.7
20260903163057 17 238 8.0 16.1 0.00 0.48 0.10 52 1007.8
20260903161600 16 192 8.0 16.1 0.00 0.48 0.10 57 1007.8
20260903160129 14 154 0.0 4.8 0.00 0.48 0.10 67 1007.9
20260903154611 13 155 3.2 8.0 0.00 0.48 0.10 72 1007.7
20260903153056 12 0 0.0 3.2 0.00 0.48 0.10 71 1007.9
20260903151616 11 0 0.0 8.0 0.00 0.48 0.10 75 1007.8
20260903150111 11 155 4.8 11.3 0.00 0.48 0.10 80 1007.9
20260903144610 11 0 0.0 0.0 0.00 0.48 0.10 79 1007.8
20260903143105 10 161 0.0 9.7 0.00 0.48 0.10 80 1007.6
20260903141613 10 161 6.4 9.7 0.00 0.48 0.10 81 1007.5
20260903140109 9 161 0.0 0.0 0.00 0.48 0.10 84 1007.3
20260903134600 9 161 4.8 9.7 0.00 0.48 0.10 82 1007.2
20260903133057 8 161 6.4 9.7 0.00 0.48 0.10 83 1007.1
20260903131602 8 161 8.0 9.7 0.00 0.48 0.10 84 1006.9
20260903130052 7 161 8.0 9.7 0.00 0.48 0.10 83 1006.7
20260903124605 7 161 4.8 9.7 0.00 0.48 0.10 83 1006.6
20260903123058 7 161 6.4 9.7 0.00 0.48 0.10 82 1006.4
20260903121553 8 0 0.0 9.7 0.03 0.48 0.10 80 1006.3
20260903120101 8 161 8.0 9.7 0.03 0.48 0.10 80 1006.3
20260903114603 8 0 0.0 0.0 0.03 0.48 0.10 77 1006.3
20260903113056 9 161 4.8 9.7 0.03 0.48 0.10 77 1006.8
20260903111552 9 161 1.6 9.7 0.00 0.46 0.08 77 1006.7
20260903110057 8 0 1.6 8.0 0.00 0.46 0.08 79 1006.7
20260903104558 9 0 0.0 8.0 0.00 0.46 0.08 77 1006.8
20260903103101 8 0 0.0 0.0 0.00 0.46 0.08 79 1006.6
20260903101606 8 161 4.8 16.1 0.00 0.46 0.08 80 1006.5
20260903100110 8 156 6.4 9.7 0.03 0.46 0.08 79 1006.1
20260903094607 8 156 6.4 9.7 0.03 0.46 0.08 80 1006.1
20260903093108 9 155 3.2 8.0 0.03 0.46 0.08 78 1006.3
20260903091556 9 0 0.0 3.2 0.03 0.46 0.08 79 1006.1
20260903084557 8 155 1.6 8.0 0.00 0.43 0.05 80 1006.2
20260903083107 8 0 0.0 0.0 0.00 0.43 0.05 82 1006.0
20260903081601 8 0 0.0 0.0 0.03 0.43 0.05 80 1006.1
20260903080105 9 155 4.8 12.9 0.03 0.43 0.05 80 1006.2
20260903074602 9 152 4.8 11.3 0.03 0.43 0.05 80 1006.3
20260903073106 9 151 11.3 17.7 0.03 0.43 0.05 81 1006.3
20260903071610 10 0 0.0 0.0 0.00 0.41 0.03 79 1006.1
20260903070059 11 0 0.0 0.0 0.03 0.41 0.03 74 1006.2
20260903064553 11 0 1.6 8.0 0.03 0.41 0.03 71 1005.7
20260903063113 11 210 1.6 6.4 0.03 0.41 0.03 72 1005.9
20260903061600 11 210 3.2 6.4 0.03 0.41 0.03 77 1006.2
20260903060110 11 0 4.8 8.0 0.03 0.38 0.00 76 1006.2
20260903054554 12 210 3.2 6.4 0.03 0.38 0.38 74 1006.0
20260903053056 12 210 4.8 11.3 0.03 0.38 0.38 73 1006.5
20260903051554 12 210 8.0 12.9 0.03 0.38 0.38 74 1006.5
20260903050118 12 209 12.9 25.7 0.03 0.36 0.36 74 1006.6
20260903044559 12 221 9.7 14.5 0.03 0.36 0.36 78 1007.0
20260903043058 12 236 9.7 16.1 0.03 0.36 0.36 77 1007.3
20260903041554 11 249 8.0 12.9 0.03 0.36 0.36 76 1007.2
20260903040058 10 277 6.4 12.9 0.03 0.33 0.33 81 1007.1
20260903034559 10 0 0.0 4.8 0.03 0.33 0.33 78 1007.1
20260903033055 11 281 0.0 9.7 0.03 0.33 0.33 77 1007.1
20260903031554 11 0 0.0 0.0 0.05 0.33 0.33 73 1007.1
20260903030056 12 0 0.0 12.9 0.03 0.30 0.30 72 1006.6
20260903024552 12 287 8.0 14.5 0.03 0.30 0.30 74 1006.2
20260903023102 12 288 6.4 12.9 0.05 0.30 0.30 76 1006.5
20260903021556 12 288 0.0 8.0 0.03 0.28 0.28 74 1006.8
20260903020059 13 288 4.8 14.5 0.05 0.28 0.28 71 1007.2
20260903014559 14 291 11.3 27.4 0.05 0.28 0.28 67 1006.3
20260903013101 14 254 20.9 32.2 0.05 0.25 0.25 69 1006.8
20260903011603 15 234 16.1 25.7 0.05 0.25 0.25 74 1006.8